This demonstration page uses our WeatherBlox Daily Observations layout. Learn more.

Left ArrowRight Arrow

Hourly Observations for May 29, 2016

Temp ( °F °C ) Dew Point ( °F °C ) Humidity (%) Winds ( mph kmh ) Pressure ( in mb ) Visibility ( mi km ) Precip ( " mm )
12:52 am 00:52 Clear 67 19.4 61 16.1 81 81 W 5 7 30.03 1017 10 16 0.00 0.00
1:52 am 01:52 Clear 63 17.2 60 15.6 90 90 S 5 7 30.02 1017 10 16 0.00 0.00
2:52 am 02:52 Clear 62 16.7 59 15 90 90 S 6 9 30.04 1017 10 16 0.00 0.00
3:52 am 03:52 Clear 63 17.2 60 15.6 90 90 S 5 7 30.03 1017 9 14 0.00 0.00
4:52 am 04:52 Clear 61 16.1 59 15 93 93 SSE 5 7 30.05 1018 8 13 0.00 0.00
5:47 am 05:47 Clear with Mist and Fog 61 16 57 14 88 88 Calm 30.09 1019 2 3 0.00 0.00
5:52 am 05:52 Clear with Mist and Fog 60 15.6 58 14.4 93 93 SSE 3 6 30.06 1018 5 8 0.00 0.00
6:08 am 06:08 Partly Cloudy with Mist and Fog 61 16 57 14 88 88 SSE 3 6 30.09 1019 2 3 0.00 0.00
6:29 am 06:29 Partly Cloudy with Mist and Fog 60 15.6 58 14.4 93 93 SSE 3 6 30.12 1020 3 5 0.00 0.00
6:52 am 06:52 Sunny with Mist and Fog 64 17.8 62 16.7 93 93 S 5 7 30.09 1019 6 10 0.00 0.00
7:52 am 07:52 Sunny 68 20 64 17.8 87 87 SSW 5 7 30.10 1019 10 16 0.00 0.00
8:52 am 08:52 Sunny 74 23.3 67 19.4 79 79 WSW 9 15 30.11 1020 10 16 0.00 0.00
9:52 am 09:52 Mostly Sunny 77 25 68 20 74 74 W 9 15 30.12 1020 10 16 0.00 0.00
10:52 am 10:52 Mostly Sunny 78 25.6 66 18.9 67 67 W 9 15 30.12 1020 10 16 0.00 0.00
11:52 am 11:52 Mostly Sunny 81 27.2 63 17.2 54 54 W 9 15 30.12 1020 10 16 0.00 0.00
12:52 pm 12:52 Partly Cloudy 82 27.8 64 17.8 55 55 W 7 11 30.11 1020 10 16 0.00 0.00
1:52 pm 13:52 Mostly Cloudy 82 27.8 62 16.7 51 51 WNW 8 13 30.10 1019 10 16 0.00 0.00
2:52 pm 14:52 Mostly Sunny 84 28.9 59 15 43 43 VRB 5 7 30.09 1019 10 16 0.00 0.00
3:52 pm 15:52 Sunny 84 28.9 60 15.6 44 44 W 6 9 30.06 1018 10 16 0.00 0.00
4:52 pm 16:52 Sunny 83 28.3 60 15.6 46 46 WNW 5 7 30.05 1018 10 16 0.00 0.00
5:52 pm 17:52 Sunny 83 28.3 61 16.1 48 48 N 5 7 30.05 1018 10 16 0.00 0.00
6:52 pm 18:52 Sunny 82 27.8 62 16.7 51 51 NNE 6 9 30.03 1017 10 16 0.00 0.00
7:52 pm 19:52 Sunny 78 25.6 62 16.7 58 58 E 3 6 30.05 1018 10 16 0.00 0.00
8:52 pm 20:52 Clear 73 22.8 63 17.2 71 71 ESE 7 11 30.04 1017 10 16 0.00 0.00
9:52 pm 21:52 Clear 72 22.2 62 16.7 71 71 SE 5 7 30.05 1018 10 16 0.00 0.00
10:52 pm 22:52 Clear 69 20.6 62 16.7 78 78 SSE 6 9 30.06 1018 10 16 0.00 0.00
11:52 pm 23:52 Clear 69 20.6 62 16.7 78 78 SSE 7 11 30.05 1018 10 16 0.00 0.00

Powered by AerisWeather